Location: Hylvaty SDH
(49.9612°N, 16.4057°E)
Time: 11:20:27
(UTC+01:00)

A-11 Canister half - Pass Details

Date: 04 October 2020
Orbit: 1526 x 1683 km, 47.3° (Epoch: 28 October)

Event Time Altitude Azimuth Distance (km) Brightness Sun altitude
Rises 05:26:59 0° 287° (WNW) 4,738 - -15.6°
Reaches altitude 10° 05:31:01 10° 273° (W) 3,775 - -15.0°
Exits shadow 05:34:32 18° 252° (WSW) 3,208 10.0 -14.4°
Maximum altitude 05:37:27 21° 230° (SW) 3,054 10.1 -14.0°
Drops below altitude 10° 05:44:01 10° 187° (S) 3,850 10.9 -12.9°
Sets 05:48:13 0° 172° (S) 4,859 11.6 -12.3°
